Location: Allens Landing
(37.8284°N, 89.7284°W)
Time: 08:00:52
(UTC+00:00)

Vanguard 2 Rocket - Pass Details

Date: 11 November 2024
Orbit: 554 x 3296 km, 32.9° (Epoch: 04 December)

Event Time Altitude Azimuth Distance (km) Brightness Sun altitude
Rises 11:12:10 0° 200° (SSW) 5,250 10.7 -16.7°
Reaches altitude 10° 11:15:54 10° 189° (S) 4,637 10.5 -15.9°
Maximum altitude 11:27:08 29° 135° (SE) 4,183 10.9 -13.8°
Drops below altitude 10° 11:41:55 10° 85° (E) 6,200 12.4 -10.9°
Sets 11:47:55 0° 77° (ENE) 7,279 12.7 -9.8°
